Location: Lynch Observatory
(39.9540°N, 75.1861°W)
Time: 11:08:12
(UTC-04:00)

DOVE 4 - Pass Details

Date: 30 April 2024
Orbit: 581 x 778 km, 97.7° (Epoch: 26 May)

Event Time Altitude Azimuth Distance (km) Brightness Sun altitude
Rises 21:15:12 0° 37° (NE) 2,998 ? -14.4°
Reaches altitude 10° 21:18:59 10° 70° (ENE) 2,131 ? -15.0°
Enters shadow 21:19:23 11° 75° (ENE) 2,088 ? -15.1°
